Year,Month,Day,Hour,Minute,Value (Times are PST for temperature in C)
2015,06,14,00,00,14.40
2015,06,14,00,01,14.40
2015,06,14,00,02,14.40
2015,06,14,00,03,14.40
2015,06,14,00,04,14.30
2015,06,14,00,05,14.30
2015,06,14,00,06,14.30
2015,06,14,00,07,14.30
2015,06,14,00,08,14.30
2015,06,14,00,09,14.30
2015,06,14,00,10,14.30
2015,06,14,00,11,14.30
2015,06,14,00,12,14.30
2015,06,14,00,13,14.30
2015,06,14,00,14,14.30
2015,06,14,00,15,14.20
2015,06,14,00,16,14.20
2015,06,14,00,17,14.20
2015,06,14,00,18,14.20
2015,06,14,00,19,14.20
2015,06,14,00,20,14.20
2015,06,14,00,21,14.20
2015,06,14,00,22,14.20
2015,06,14,00,23,14.20
2015,06,14,00,24,14.20
2015,06,14,00,25,14.20
2015,06,14,00,26,14.10
2015,06,14,00,27,14.10
2015,06,14,00,28,14.10
2015,06,14,00,29,14.10
2015,06,14,00,30,14.10
2015,06,14,00,31,14.10
2015,06,14,00,32,14.10
2015,06,14,00,33,14.10
2015,06,14,00,34,14.10
2015,06,14,00,35,14.10
2015,06,14,00,36,14.00
2015,06,14,00,37,14.00
2015,06,14,00,38,14.00
2015,06,14,00,39,14.00
2015,06,14,00,40,13.90
2015,06,14,00,41,13.90
2015,06,14,00,42,13.90
2015,06,14,00,43,13.90
2015,06,14,00,44,13.90
2015,06,14,00,45,13.90
2015,06,14,00,46,13.80
2015,06,14,00,47,13.80
2015,06,14,00,48,13.80
2015,06,14,00,49,13.80
2015,06,14,00,50,13.80
2015,06,14,00,51,13.80
2015,06,14,00,52,13.80
2015,06,14,00,53,13.80
2015,06,14,00,54,13.80
2015,06,14,00,55,13.80
2015,06,14,00,56,13.80
2015,06,14,00,57,13.80
2015,06,14,00,58,13.80
2015,06,14,00,59,13.80
2015,06,14,01,00,13.80
2015,06,14,01,01,13.80
2015,06,14,01,02,13.80
2015,06,14,01,03,13.70
2015,06,14,01,04,13.70
2015,06,14,01,05,13.70
2015,06,14,01,06,13.70
2015,06,14,01,07,13.70
2015,06,14,01,08,13.70
2015,06,14,01,09,13.70
2015,06,14,01,10,13.70
2015,06,14,01,11,13.70
2015,06,14,01,12,13.70
2015,06,14,01,13,13.70
2015,06,14,01,14,13.70
2015,06,14,01,15,13.70
2015,06,14,01,16,13.70
2015,06,14,01,17,13.70
2015,06,14,01,18,13.70
2015,06,14,01,19,13.70
2015,06,14,01,20,13.70
2015,06,14,01,21,13.70
2015,06,14,01,22,13.70
2015,06,14,01,23,13.70
2015,06,14,01,24,13.60
2015,06,14,01,25,13.60
2015,06,14,01,26,13.60
2015,06,14,01,27,13.60
2015,06,14,01,28,13.60
2015,06,14,01,29,13.50
2015,06,14,01,30,13.50
2015,06,14,01,31,13.40
2015,06,14,01,32,13.40
2015,06,14,01,33,13.40
2015,06,14,01,34,13.40
2015,06,14,01,35,13.40
2015,06,14,01,36,13.40
2015,06,14,01,37,13.40
2015,06,14,01,38,13.40
2015,06,14,01,39,13.40
2015,06,14,01,40,13.40
2015,06,14,01,41,13.30
2015,06,14,01,42,13.30
2015,06,14,01,43,13.30
2015,06,14,01,44,13.30
2015,06,14,01,45,13.30
2015,06,14,01,46,13.30
2015,06,14,01,47,13.30
2015,06,14,01,48,13.30
2015,06,14,01,49,13.30
2015,06,14,01,50,13.30
2015,06,14,01,51,13.30
2015,06,14,01,52,13.30
2015,06,14,01,53,13.30
2015,06,14,01,54,13.30
2015,06,14,01,55,13.20
2015,06,14,01,56,13.20
2015,06,14,01,57,13.20
2015,06,14,01,58,13.20
2015,06,14,01,59,13.20
2015,06,14,02,00,13.20
2015,06,14,02,01,13.20
2015,06,14,02,02,13.20
2015,06,14,02,03,13.20
2015,06,14,02,04,13.20
2015,06,14,02,05,13.20
2015,06,14,02,06,13.20
2015,06,14,02,07,13.10
2015,06,14,02,08,13.10
2015,06,14,02,09,13.10
2015,06,14,02,10,13.10
2015,06,14,02,11,13.10
2015,06,14,02,12,13.10
2015,06,14,02,13,13.10
2015,06,14,02,14,13.10
2015,06,14,02,15,13.10
2015,06,14,02,16,13.10
2015,06,14,02,17,13.10
2015,06,14,02,18,13.10
2015,06,14,02,19,13.10
2015,06,14,02,20,13.10
2015,06,14,02,21,13.10
2015,06,14,02,22,13.10
2015,06,14,02,23,13.10
2015,06,14,02,24,13.10
2015,06,14,02,25,13.10
2015,06,14,02,26,13.10
2015,06,14,02,27,13.10
2015,06,14,02,28,13.10
2015,06,14,02,29,13.00
2015,06,14,02,30,13.00
2015,06,14,02,31,13.00
2015,06,14,02,32,13.00
2015,06,14,02,33,13.00
2015,06,14,02,34,13.00
2015,06,14,02,35,12.90
2015,06,14,02,36,12.90
2015,06,14,02,37,12.90
2015,06,14,02,38,12.90
2015,06,14,02,39,12.90
2015,06,14,02,40,12.90
2015,06,14,02,41,13.00
2015,06,14,02,42,13.00
2015,06,14,02,43,13.00
2015,06,14,02,44,12.90
2015,06,14,02,45,12.90
2015,06,14,02,46,12.90
2015,06,14,02,47,12.90
2015,06,14,02,48,12.90
2015,06,14,02,49,12.90
2015,06,14,02,50,12.90
2015,06,14,02,51,12.80
2015,06,14,02,52,12.80
2015,06,14,02,53,12.80
2015,06,14,02,54,12.80
2015,06,14,02,55,12.80
2015,06,14,02,56,12.80
2015,06,14,02,57,12.80
2015,06,14,02,58,12.80
2015,06,14,02,59,12.80
2015,06,14,03,00,12.80
2015,06,14,03,01,12.80
2015,06,14,03,02,12.80
2015,06,14,03,03,12.80
2015,06,14,03,04,12.80
2015,06,14,03,05,12.80
2015,06,14,03,06,12.80
2015,06,14,03,07,12.80
2015,06,14,03,08,12.70
2015,06,14,03,09,12.70
2015,06,14,03,10,12.70
2015,06,14,03,11,12.70
2015,06,14,03,12,12.70
2015,06,14,03,13,12.70
2015,06,14,03,14,12.70
2015,06,14,03,15,12.70
2015,06,14,03,16,12.80
2015,06,14,03,17,12.80
2015,06,14,03,18,12.70
2015,06,14,03,19,12.70
2015,06,14,03,20,12.70
2015,06,14,03,21,12.70
2015,06,14,03,22,12.70
2015,06,14,03,23,12.70
2015,06,14,03,24,12.70
2015,06,14,03,25,12.70
2015,06,14,03,26,12.70
2015,06,14,03,27,12.70
2015,06,14,03,28,12.70
2015,06,14,03,29,12.70
2015,06,14,03,30,12.70
2015,06,14,03,31,12.70
2015,06,14,03,32,12.70
2015,06,14,03,33,12.70
2015,06,14,03,34,12.60
2015,06,14,03,35,12.60
2015,06,14,03,36,12.60
2015,06,14,03,37,12.60
2015,06,14,03,38,12.60
2015,06,14,03,39,12.60
2015,06,14,03,40,12.60
2015,06,14,03,41,12.60
2015,06,14,03,42,12.60
2015,06,14,03,43,12.60
2015,06,14,03,44,12.60
2015,06,14,03,45,12.60
2015,06,14,03,46,12.60
2015,06,14,03,47,12.60
2015,06,14,03,48,12.60
2015,06,14,03,49,12.60
2015,06,14,03,50,12.50
2015,06,14,03,51,12.50
2015,06,14,03,52,12.50
2015,06,14,03,53,12.50
2015,06,14,03,54,12.50
2015,06,14,03,55,12.50
2015,06,14,03,56,12.50
2015,06,14,03,57,12.50
2015,06,14,03,58,12.50
2015,06,14,03,59,12.50
2015,06,14,04,00,12.60
2015,06,14,04,01,12.60
2015,06,14,04,02,12.50
2015,06,14,04,03,12.50
2015,06,14,04,04,12.50
2015,06,14,04,05,12.50
2015,06,14,04,06,12.50
2015,06,14,04,07,12.50
2015,06,14,04,08,12.50
2015,06,14,04,09,12.50
2015,06,14,04,10,12.50
2015,06,14,04,11,12.50
2015,06,14,04,12,12.40
2015,06,14,04,13,12.40
2015,06,14,04,14,12.40
2015,06,14,04,15,12.40
2015,06,14,04,16,12.40
2015,06,14,04,17,12.40
2015,06,14,04,18,12.40
2015,06,14,04,19,12.40
2015,06,14,04,20,12.40
2015,06,14,04,21,12.40
2015,06,14,04,22,12.40
2015,06,14,04,23,12.40
2015,06,14,04,24,12.40
2015,06,14,04,25,12.40
2015,06,14,04,26,12.40
2015,06,14,04,27,12.40
2015,06,14,04,28,12.40
2015,06,14,04,29,12.40
2015,06,14,04,30,12.30
2015,06,14,04,31,12.30
2015,06,14,04,32,12.30
2015,06,14,04,33,12.30
2015,06,14,04,34,12.30
2015,06,14,04,35,12.30
2015,06,14,04,36,12.30
2015,06,14,04,37,12.30
2015,06,14,04,38,12.30
2015,06,14,04,39,12.30
2015,06,14,04,40,12.30
2015,06,14,04,41,12.30
2015,06,14,04,42,12.30
2015,06,14,04,43,12.30
2015,06,14,04,44,12.30
2015,06,14,04,45,12.30
2015,06,14,04,46,12.30
2015,06,14,04,47,12.30
2015,06,14,04,48,12.30
2015,06,14,04,49,12.30
2015,06,14,04,50,12.30
2015,06,14,04,51,12.30
2015,06,14,04,52,12.30
2015,06,14,04,53,12.30
2015,06,14,04,54,12.30
2015,06,14,04,55,12.30
2015,06,14,04,56,12.30
2015,06,14,04,57,12.30
2015,06,14,04,58,12.30
2015,06,14,04,59,12.30
2015,06,14,05,00,12.30
2015,06,14,05,01,12.20
2015,06,14,05,02,12.20
2015,06,14,05,03,12.20
2015,06,14,05,04,12.20
2015,06,14,05,05,12.20
2015,06,14,05,06,12.20
2015,06,14,05,07,12.20
2015,06,14,05,08,12.20
2015,06,14,05,09,12.20
2015,06,14,05,10,12.20
2015,06,14,05,11,12.20
2015,06,14,05,12,12.10
2015,06,14,05,13,12.10
2015,06,14,05,14,12.10
2015,06,14,05,15,12.10
2015,06,14,05,16,12.10
2015,06,14,05,17,12.10
2015,06,14,05,18,12.10
2015,06,14,05,19,12.10
2015,06,14,05,20,12.10
2015,06,14,05,21,12.10
2015,06,14,05,22,12.10
2015,06,14,05,23,12.10
2015,06,14,05,24,12.10
2015,06,14,05,25,12.10
2015,06,14,05,26,12.20
2015,06,14,05,27,12.20
2015,06,14,05,28,12.20
2015,06,14,05,29,12.20
2015,06,14,05,30,12.20
2015,06,14,05,31,12.20
2015,06,14,05,32,12.20
2015,06,14,05,33,12.10
2015,06,14,05,34,12.10
2015,06,14,05,35,12.10
2015,06,14,05,36,12.10
2015,06,14,05,37,12.10
2015,06,14,05,38,12.10
2015,06,14,05,39,12.10
2015,06,14,05,40,12.10
2015,06,14,05,41,12.10
2015,06,14,05,42,12.10
2015,06,14,05,43,12.10
2015,06,14,05,44,12.10
2015,06,14,05,45,12.10
2015,06,14,05,46,12.10
2015,06,14,05,47,12.10
2015,06,14,05,48,12.10
2015,06,14,05,49,12.10
2015,06,14,05,50,12.10
2015,06,14,05,51,12.10
2015,06,14,05,52,12.10
2015,06,14,05,53,12.10
2015,06,14,05,54,12.10
2015,06,14,05,55,12.10
2015,06,14,05,56,12.10
2015,06,14,05,57,12.10
2015,06,14,05,58,12.10
2015,06,14,05,59,12.10
2015,06,14,06,00,12.10
2015,06,14,06,01,12.10
2015,06,14,06,02,12.10
2015,06,14,06,03,12.00
2015,06,14,06,04,12.00
2015,06,14,06,05,12.00
2015,06,14,06,06,12.00
2015,06,14,06,07,12.10
2015,06,14,06,08,12.00
2015,06,14,06,09,12.10
2015,06,14,06,10,12.10
2015,06,14,06,11,12.10
2015,06,14,06,12,12.20
2015,06,14,06,13,12.20
2015,06,14,06,14,12.20
2015,06,14,06,15,12.20
2015,06,14,06,16,12.20
2015,06,14,06,17,12.20
2015,06,14,06,18,12.20
2015,06,14,06,19,12.20
2015,06,14,06,20,12.20
2015,06,14,06,21,12.20
2015,06,14,06,22,12.20
2015,06,14,06,23,12.10
2015,06,14,06,24,12.10
2015,06,14,06,25,12.10
2015,06,14,06,26,12.10
2015,06,14,06,27,12.10
2015,06,14,06,28,12.10
2015,06,14,06,29,12.10
2015,06,14,06,30,12.10
2015,06,14,06,31,12.10
2015,06,14,06,32,12.10
2015,06,14,06,33,12.10
2015,06,14,06,34,12.00
2015,06,14,06,35,12.00
2015,06,14,06,36,12.00
2015,06,14,06,37,12.00
2015,06,14,06,38,12.00
2015,06,14,06,39,12.10
2015,06,14,06,40,12.10
2015,06,14,06,41,12.10
2015,06,14,06,42,12.10
2015,06,14,06,43,12.10
2015,06,14,06,44,12.20
2015,06,14,06,45,12.20
2015,06,14,06,46,12.20
2015,06,14,06,47,12.10
2015,06,14,06,48,12.10
2015,06,14,06,49,12.10
2015,06,14,06,50,12.10
2015,06,14,06,51,12.10
2015,06,14,06,52,12.10
2015,06,14,06,53,12.10
2015,06,14,06,54,12.10
2015,06,14,06,55,12.10
2015,06,14,06,56,12.10
2015,06,14,06,57,12.10
2015,06,14,06,58,12.10
2015,06,14,06,59,12.10
2015,06,14,07,00,12.00
2015,06,14,07,01,12.00
2015,06,14,07,02,11.90
2015,06,14,07,03,12.00
2015,06,14,07,04,12.00
2015,06,14,07,05,12.00
2015,06,14,07,06,12.00
2015,06,14,07,07,12.00
2015,06,14,07,08,12.00
2015,06,14,07,09,11.90
2015,06,14,07,10,11.90
2015,06,14,07,11,11.80
2015,06,14,07,12,11.80
2015,06,14,07,13,11.70
2015,06,14,07,14,11.70
2015,06,14,07,15,11.80
2015,06,14,07,16,11.90
2015,06,14,07,17,11.90
2015,06,14,07,18,12.00
2015,06,14,07,19,12.00
2015,06,14,07,20,11.90
2015,06,14,07,21,11.90
2015,06,14,07,22,11.90
2015,06,14,07,23,11.90
2015,06,14,07,24,11.90
2015,06,14,07,25,11.80
2015,06,14,07,26,11.80
2015,06,14,07,27,11.70
2015,06,14,07,28,11.70
2015,06,14,07,29,11.60
2015,06,14,07,30,11.60
2015,06,14,07,31,11.50
2015,06,14,07,32,11.50
2015,06,14,07,33,11.50
2015,06,14,07,34,11.40
2015,06,14,07,35,11.40
2015,06,14,07,36,11.30
2015,06,14,07,37,11.30
2015,06,14,07,38,11.30
2015,06,14,07,39,11.30
2015,06,14,07,40,11.50
2015,06,14,07,41,11.60
2015,06,14,07,42,11.70
2015,06,14,07,43,11.80
2015,06,14,07,44,11.80
2015,06,14,07,45,11.90
2015,06,14,07,46,11.90
2015,06,14,07,47,12.00
2015,06,14,07,48,12.00
2015,06,14,07,49,12.00
2015,06,14,07,50,12.00
2015,06,14,07,51,11.90
2015,06,14,07,52,11.90
2015,06,14,07,53,11.90
2015,06,14,07,54,11.90
2015,06,14,07,55,11.90
2015,06,14,07,56,11.80
2015,06,14,07,57,11.80
2015,06,14,07,58,11.70
2015,06,14,07,59,11.70
2015,06,14,08,00,11.60
2015,06,14,08,01,11.50
2015,06,14,08,02,11.50
2015,06,14,08,03,11.50
2015,06,14,08,04,11.40
2015,06,14,08,05,11.40
2015,06,14,08,06,11.40
2015,06,14,08,07,11.40
2015,06,14,08,08,11.40
2015,06,14,08,09,11.40
2015,06,14,08,10,11.50
2015,06,14,08,11,11.50
2015,06,14,08,12,11.60
2015,06,14,08,13,11.60
2015,06,14,08,14,11.60
2015,06,14,08,15,11.60
2015,06,14,08,16,11.60
2015,06,14,08,17,11.60
2015,06,14,08,18,11.60
2015,06,14,08,19,11.60
2015,06,14,08,20,11.60
2015,06,14,08,21,11.60
2015,06,14,08,22,11.60
2015,06,14,08,23,11.70
2015,06,14,08,24,11.70
2015,06,14,08,25,11.70
2015,06,14,08,26,11.70
2015,06,14,08,27,11.70
2015,06,14,08,28,11.70
2015,06,14,08,29,11.70
2015,06,14,08,30,11.70
2015,06,14,08,31,11.70
2015,06,14,08,32,11.70
2015,06,14,08,33,11.70
2015,06,14,08,34,11.70
2015,06,14,08,35,11.70
2015,06,14,08,36,11.70
2015,06,14,08,37,11.70
2015,06,14,08,38,11.70
2015,06,14,08,39,11.80
2015,06,14,08,40,11.80
2015,06,14,08,41,11.80
2015,06,14,08,42,11.80
2015,06,14,08,43,11.80
2015,06,14,08,44,11.80
2015,06,14,08,45,11.80
2015,06,14,08,46,11.80
2015,06,14,08,47,11.80
2015,06,14,08,48,11.90
2015,06,14,08,49,11.90
2015,06,14,08,50,11.90
2015,06,14,08,51,12.00
2015,06,14,08,52,12.00
2015,06,14,08,53,12.00
2015,06,14,08,54,12.10
2015,06,14,08,55,12.10
2015,06,14,08,56,12.10
2015,06,14,08,57,12.20
2015,06,14,08,58,12.30
2015,06,14,08,59,12.30
2015,06,14,09,00,12.40
2015,06,14,09,01,12.50
2015,06,14,09,02,12.50
2015,06,14,09,03,12.60
2015,06,14,09,04,12.60
2015,06,14,09,05,12.70
2015,06,14,09,06,12.70
2015,06,14,09,07,12.70
2015,06,14,09,08,12.80
2015,06,14,09,09,12.80
2015,06,14,09,10,12.80
2015,06,14,09,11,12.80
2015,06,14,09,12,12.80
2015,06,14,09,13,12.90
2015,06,14,09,14,12.90
2015,06,14,09,15,13.00
2015,06,14,09,16,13.00
2015,06,14,09,17,13.10
2015,06,14,09,18,13.20
2015,06,14,09,19,13.20
2015,06,14,09,20,13.30
2015,06,14,09,21,13.30
2015,06,14,09,22,13.40
2015,06,14,09,23,13.50
2015,06,14,09,24,13.50
2015,06,14,09,25,13.60
2015,06,14,09,26,13.60
2015,06,14,09,27,13.70
2015,06,14,09,28,13.70
2015,06,14,09,29,13.80
2015,06,14,09,30,13.80
2015,06,14,09,31,13.80
2015,06,14,09,32,13.90
2015,06,14,09,33,13.90
2015,06,14,09,34,13.90
2015,06,14,09,35,13.90
2015,06,14,09,36,14.00
2015,06,14,09,37,14.00
2015,06,14,09,38,14.10
2015,06,14,09,39,14.10
2015,06,14,09,40,14.10
2015,06,14,09,41,14.20
2015,06,14,09,42,14.20
2015,06,14,09,43,14.20
2015,06,14,09,44,14.30
2015,06,14,09,45,14.40
2015,06,14,09,46,14.60
2015,06,14,09,47,14.70
2015,06,14,09,48,14.80
2015,06,14,09,49,15.00
2015,06,14,09,50,15.10
2015,06,14,09,51,15.20
2015,06,14,09,52,15.30
2015,06,14,09,53,15.40
2015,06,14,09,54,15.40
2015,06,14,09,55,15.50
2015,06,14,09,56,15.60
2015,06,14,09,57,15.60
2015,06,14,09,58,15.70
2015,06,14,09,59,15.70
2015,06,14,10,00,15.80
2015,06,14,10,01,15.80
2015,06,14,10,02,15.90
2015,06,14,10,03,16.00
2015,06,14,10,04,16.00
2015,06,14,10,05,16.10
2015,06,14,10,06,16.20
2015,06,14,10,07,16.30
2015,06,14,10,08,16.40
2015,06,14,10,09,16.60
2015,06,14,10,10,16.60
2015,06,14,10,11,16.70
2015,06,14,10,12,16.70
2015,06,14,10,13,16.80
2015,06,14,10,14,16.80
2015,06,14,10,15,16.80
2015,06,14,10,16,16.90
2015,06,14,10,17,16.90
2015,06,14,10,18,17.00
2015,06,14,10,19,17.00
2015,06,14,10,20,17.00
2015,06,14,10,21,17.10
2015,06,14,10,22,17.10
2015,06,14,10,23,17.20
2015,06,14,10,24,17.20
2015,06,14,10,25,17.30
2015,06,14,10,26,17.40
2015,06,14,10,27,17.50
2015,06,14,10,28,17.60
2015,06,14,10,29,17.70
2015,06,14,10,30,17.70
2015,06,14,10,31,17.80
2015,06,14,10,32,17.90
2015,06,14,10,33,18.00
2015,06,14,10,34,18.10
2015,06,14,10,35,18.20
2015,06,14,10,36,18.30
2015,06,14,10,37,18.40
2015,06,14,10,38,18.50
2015,06,14,10,39,18.60
2015,06,14,10,40,18.70
2015,06,14,10,41,18.70
2015,06,14,10,42,18.80
2015,06,14,10,43,18.90
2015,06,14,10,44,19.00
2015,06,14,10,45,19.10
2015,06,14,10,46,19.20
2015,06,14,10,47,19.20
2015,06,14,10,48,19.30
2015,06,14,10,49,19.40
2015,06,14,10,50,19.40
2015,06,14,10,51,19.40
2015,06,14,10,52,19.50
2015,06,14,10,53,19.60
2015,06,14,10,54,19.70
2015,06,14,10,55,19.80
2015,06,14,10,56,19.80
2015,06,14,10,57,19.80
2015,06,14,10,58,19.80
2015,06,14,10,59,19.80
2015,06,14,11,00,19.80
2015,06,14,11,01,19.90
2015,06,14,11,02,19.90
2015,06,14,11,03,20.00
2015,06,14,11,04,20.10
2015,06,14,11,05,20.20
2015,06,14,11,06,20.20
2015,06,14,11,07,20.30
2015,06,14,11,08,20.20
2015,06,14,11,09,20.20
2015,06,14,11,10,20.20
2015,06,14,11,11,20.20
2015,06,14,11,12,20.30
2015,06,14,11,13,20.20
2015,06,14,11,14,20.30
2015,06,14,11,15,20.30
2015,06,14,11,16,20.40
2015,06,14,11,17,20.40
2015,06,14,11,18,20.50
2015,06,14,11,19,20.50
2015,06,14,11,20,20.60
2015,06,14,11,21,20.60
2015,06,14,11,22,20.60
2015,06,14,11,23,20.70
2015,06,14,11,24,20.70
2015,06,14,11,25,20.80
2015,06,14,11,26,20.90
2015,06,14,11,27,20.90
2015,06,14,11,28,21.00
2015,06,14,11,29,21.10
2015,06,14,11,30,21.10
2015,06,14,11,31,21.20
2015,06,14,11,32,21.20
2015,06,14,11,33,21.20
2015,06,14,11,34,21.20
2015,06,14,11,35,21.20
2015,06,14,11,36,21.20
2015,06,14,11,37,21.20
2015,06,14,11,38,21.20
2015,06,14,11,39,21.20
2015,06,14,11,40,21.20
2015,06,14,11,41,21.20
2015,06,14,11,42,21.20
2015,06,14,11,43,21.20
2015,06,14,11,44,21.20
2015,06,14,11,45,21.30
2015,06,14,11,46,21.20
2015,06,14,11,47,21.20
2015,06,14,11,48,21.30
2015,06,14,11,49,21.30
2015,06,14,11,50,21.40
2015,06,14,11,51,21.50
2015,06,14,11,52,21.60
2015,06,14,11,53,21.70
2015,06,14,11,54,21.70
2015,06,14,11,55,21.80
2015,06,14,11,56,21.80
2015,06,14,11,57,21.80
2015,06,14,11,58,21.90
2015,06,14,11,59,21.80
2015,06,14,12,00,21.80
2015,06,14,12,01,21.80
2015,06,14,12,02,21.80
2015,06,14,12,03,21.80
2015,06,14,12,04,21.90
2015,06,14,12,05,21.90
2015,06,14,12,06,22.00
2015,06,14,12,07,22.10
2015,06,14,12,08,22.10
2015,06,14,12,09,22.20
2015,06,14,12,10,22.20
2015,06,14,12,11,22.20
2015,06,14,12,12,22.20
2015,06,14,12,13,22.20
2015,06,14,12,14,22.20
2015,06,14,12,15,22.20
2015,06,14,12,16,22.20
2015,06,14,12,17,22.10
2015,06,14,12,18,22.10
2015,06,14,12,19,22.10
2015,06,14,12,20,22.00
2015,06,14,12,21,22.00
2015,06,14,12,22,22.00
2015,06,14,12,23,22.10
2015,06,14,12,24,22.10
2015,06,14,12,25,22.00
2015,06,14,12,26,22.00
2015,06,14,12,27,21.90
2015,06,14,12,28,21.80
2015,06,14,12,29,21.70
2015,06,14,12,30,21.70
2015,06,14,12,31,21.60
2015,06,14,12,32,21.60
2015,06,14,12,33,21.70
2015,06,14,12,34,21.70
2015,06,14,12,35,21.70
2015,06,14,12,36,21.60
2015,06,14,12,37,21.60
2015,06,14,12,38,21.50
2015,06,14,12,39,21.40
2015,06,14,12,40,21.30
2015,06,14,12,41,21.20
2015,06,14,12,42,21.10
2015,06,14,12,43,21.10
2015,06,14,12,44,21.10
2015,06,14,12,45,21.10
2015,06,14,12,46,21.20
2015,06,14,12,47,21.30
2015,06,14,12,48,21.40
2015,06,14,12,49,21.50
2015,06,14,12,50,21.60
2015,06,14,12,51,21.50
2015,06,14,12,52,21.40
2015,06,14,12,53,21.40
2015,06,14,12,54,21.30
2015,06,14,12,55,21.30
2015,06,14,12,56,21.50
2015,06,14,12,57,21.70
2015,06,14,12,58,21.80
2015,06,14,12,59,21.80
2015,06,14,13,00,21.80
2015,06,14,13,01,21.90
2015,06,14,13,02,22.10
2015,06,14,13,03,22.20
2015,06,14,13,04,22.20
2015,06,14,13,05,22.20
2015,06,14,13,06,22.30
2015,06,14,13,07,22.50
2015,06,14,13,08,22.70
2015,06,14,13,09,22.80
2015,06,14,13,10,22.90
2015,06,14,13,11,23.10
2015,06,14,13,12,23.20
2015,06,14,13,13,23.20
2015,06,14,13,14,23.20
2015,06,14,13,15,23.20
2015,06,14,13,16,23.30
2015,06,14,13,17,23.40
2015,06,14,13,18,23.40
2015,06,14,13,19,23.50
2015,06,14,13,20,23.60
2015,06,14,13,21,23.60
2015,06,14,13,22,23.60
2015,06,14,13,23,23.70
2015,06,14,13,24,23.70
2015,06,14,13,25,23.80
2015,06,14,13,26,23.80
2015,06,14,13,27,23.80
2015,06,14,13,28,23.80
2015,06,14,13,29,23.90
2015,06,14,13,30,23.90
2015,06,14,13,31,23.90
2015,06,14,13,32,24.00
2015,06,14,13,33,23.90
2015,06,14,13,34,23.80
2015,06,14,13,35,23.80
2015,06,14,13,36,23.80
2015,06,14,13,37,23.70
2015,06,14,13,38,23.70
2015,06,14,13,39,23.70
2015,06,14,13,40,23.70
2015,06,14,13,41,23.70
2015,06,14,13,42,23.80
2015,06,14,13,43,23.90
2015,06,14,13,44,23.90
2015,06,14,13,45,24.00
2015,06,14,13,46,23.90
2015,06,14,13,47,23.80
2015,06,14,13,48,23.70
2015,06,14,13,49,23.70
2015,06,14,13,50,23.60
2015,06,14,13,51,23.60
2015,06,14,13,52,23.70
2015,06,14,13,53,23.70
2015,06,14,13,54,23.80
2015,06,14,13,55,23.80
2015,06,14,13,56,23.80
2015,06,14,13,57,23.70
2015,06,14,13,58,23.70
2015,06,14,13,59,23.60
2015,06,14,14,00,23.40
2015,06,14,14,01,23.40
2015,06,14,14,02,23.30
2015,06,14,14,03,23.30
2015,06,14,14,04,23.20
2015,06,14,14,05,23.20
2015,06,14,14,06,23.20
2015,06,14,14,07,23.20
2015,06,14,14,08,23.20
2015,06,14,14,09,23.30
2015,06,14,14,10,23.40
2015,06,14,14,11,23.40
2015,06,14,14,12,23.40
2015,06,14,14,13,23.30
2015,06,14,14,14,23.30
2015,06,14,14,15,23.30
2015,06,14,14,16,23.30
2015,06,14,14,17,23.20
2015,06,14,14,18,23.20
2015,06,14,14,19,23.20
2015,06,14,14,20,23.30
2015,06,14,14,21,23.40
2015,06,14,14,22,23.40
2015,06,14,14,23,23.40
2015,06,14,14,24,23.40
2015,06,14,14,25,23.40
2015,06,14,14,26,23.30
2015,06,14,14,27,23.30
2015,06,14,14,28,23.30
2015,06,14,14,29,23.30
2015,06,14,14,30,23.30
2015,06,14,14,31,23.30
2015,06,14,14,32,23.30
2015,06,14,14,33,23.30
2015,06,14,14,34,23.30
2015,06,14,14,35,23.20
2015,06,14,14,36,23.20
2015,06,14,14,37,23.20
2015,06,14,14,38,23.20
2015,06,14,14,39,23.20
2015,06,14,14,40,23.20
2015,06,14,14,41,23.20
2015,06,14,14,42,23.20
2015,06,14,14,43,23.20
2015,06,14,14,44,23.20
2015,06,14,14,45,23.20
2015,06,14,14,46,23.20
2015,06,14,14,47,23.20
2015,06,14,14,48,23.30
2015,06,14,14,49,23.30
2015,06,14,14,50,23.50
2015,06,14,14,51,23.60
2015,06,14,14,52,23.60
2015,06,14,14,53,23.70
2015,06,14,14,54,23.70
2015,06,14,14,55,23.70
2015,06,14,14,56,23.70
2015,06,14,14,57,23.70
2015,06,14,14,58,23.70
2015,06,14,14,59,23.70
2015,06,14,15,00,23.60
2015,06,14,15,01,23.60
2015,06,14,15,02,23.60
2015,06,14,15,03,23.60
2015,06,14,15,04,23.60
2015,06,14,15,05,23.70
2015,06,14,15,06,23.70
2015,06,14,15,07,23.70
2015,06,14,15,08,23.70
2015,06,14,15,09,23.70
2015,06,14,15,10,23.70
2015,06,14,15,11,23.70
2015,06,14,15,12,23.70
2015,06,14,15,13,23.70
2015,06,14,15,14,23.70
2015,06,14,15,15,23.60
2015,06,14,15,16,23.60
2015,06,14,15,17,23.50
2015,06,14,15,18,23.50
2015,06,14,15,19,23.50
2015,06,14,15,20,23.50
2015,06,14,15,21,23.40
2015,06,14,15,22,23.50
2015,06,14,15,23,23.50
2015,06,14,15,24,23.60
2015,06,14,15,25,23.60
2015,06,14,15,26,23.60
2015,06,14,15,27,23.50
2015,06,14,15,28,23.50
2015,06,14,15,29,23.40
2015,06,14,15,30,23.40
2015,06,14,15,31,23.40
2015,06,14,15,32,23.40
2015,06,14,15,33,23.40
2015,06,14,15,34,23.40
2015,06,14,15,35,23.30
2015,06,14,15,36,23.30
2015,06,14,15,37,23.30
2015,06,14,15,38,23.30
2015,06,14,15,39,23.30
2015,06,14,15,40,23.20
2015,06,14,15,41,23.30
2015,06,14,15,42,23.30
2015,06,14,15,43,23.30
2015,06,14,15,44,23.30
2015,06,14,15,45,23.30
2015,06,14,15,46,23.40
2015,06,14,15,47,23.40
2015,06,14,15,48,23.50
2015,06,14,15,49,23.50
2015,06,14,15,50,23.50
2015,06,14,15,51,23.50
2015,06,14,15,52,23.60
2015,06,14,15,53,23.50
2015,06,14,15,54,23.50
2015,06,14,15,55,23.40
2015,06,14,15,56,23.40
2015,06,14,15,57,23.30
2015,06,14,15,58,23.30
2015,06,14,15,59,23.30
2015,06,14,16,00,23.30
2015,06,14,16,01,23.30
2015,06,14,16,02,23.30
2015,06,14,16,03,23.40
2015,06,14,16,04,23.40
2015,06,14,16,05,23.40
2015,06,14,16,06,23.50
2015,06,14,16,07,23.50
2015,06,14,16,08,23.50
2015,06,14,16,09,23.50
2015,06,14,16,10,23.50
2015,06,14,16,11,23.50
2015,06,14,16,12,23.50
2015,06,14,16,13,23.40
2015,06,14,16,14,23.40
2015,06,14,16,15,23.40
2015,06,14,16,16,23.40
2015,06,14,16,17,23.40
2015,06,14,16,18,23.40
2015,06,14,16,19,23.30
2015,06,14,16,20,23.30
2015,06,14,16,21,23.40
2015,06,14,16,22,23.40
2015,06,14,16,23,23.40
2015,06,14,16,24,23.40
2015,06,14,16,25,23.40
2015,06,14,16,26,23.40
2015,06,14,16,27,23.40
2015,06,14,16,28,23.40
2015,06,14,16,29,23.50
2015,06,14,16,30,23.50
2015,06,14,16,31,23.50
2015,06,14,16,32,23.50
2015,06,14,16,33,23.40
2015,06,14,16,34,23.40
2015,06,14,16,35,23.40
2015,06,14,16,36,23.40
2015,06,14,16,37,23.40
2015,06,14,16,38,23.40
2015,06,14,16,39,23.40
2015,06,14,16,40,23.40
2015,06,14,16,41,23.40
2015,06,14,16,42,23.40
2015,06,14,16,43,23.40
2015,06,14,16,44,23.40
2015,06,14,16,45,23.40
2015,06,14,16,46,23.30
2015,06,14,16,47,23.30
2015,06,14,16,48,23.30
2015,06,14,16,49,23.20
2015,06,14,16,50,23.20
2015,06,14,16,51,23.20
2015,06,14,16,52,23.20
2015,06,14,16,53,23.20
2015,06,14,16,54,23.20
2015,06,14,16,55,23.30
2015,06,14,16,56,23.30
2015,06,14,16,57,23.30
2015,06,14,16,58,23.30
2015,06,14,16,59,23.20
2015,06,14,17,00,23.20
2015,06,14,17,01,23.20
2015,06,14,17,02,23.20
2015,06,14,17,03,23.20
2015,06,14,17,04,23.20
2015,06,14,17,05,23.20
2015,06,14,17,06,23.30
2015,06,14,17,07,23.30
2015,06,14,17,08,23.30
2015,06,14,17,09,23.30
2015,06,14,17,10,23.30
2015,06,14,17,11,23.30
2015,06,14,17,12,23.20
2015,06,14,17,13,23.20
2015,06,14,17,14,23.20
2015,06,14,17,15,23.10
2015,06,14,17,16,23.10
2015,06,14,17,17,23.00
2015,06,14,17,18,23.00
2015,06,14,17,19,22.90